TOURFACTS.DK  
Stats and Facts from Tour de France.

Tour de France 2019 starts in 348 days
  Riders   Stages   Teams   Summits   Yearly  


 
Search by year

After 2018 - Stage 14:
 15000 starters.
  5163 different riders.
  639 teams.
  2246 stages.
  456 restdays.
  441957.60 km.
  5678 abandonnees.


Top 3
GC
Christopher Froome86:20:55
Rigoberto Urán86:21:49
Romain Bardet86:23:15
Climb
Warren Barguil169 pt.
Primoz Roglic80 pt.
Thomas De Gendt64 pt.
Sprint
Michael Matthews359 pt.
André Greipel234 pt.
Edvald Boasson Hagen220 pt.
Youth
Simon Yates86:27:09
Louis Meintjes86:29:15
Emanuel Buchmann86:54:16
Facts from Tour de France 1990
  |   Stages.  |   Stage winners.  |   Days in yellow  |   Average speed.  |   Route.  |   Teams.  |   All riders.  |   Rookies.  |  

  |   Withdrawls.  |   GC.  |   Polka  |   Green  |   White  |   Summits. (In tour)  |   Miscellaneous.  |  

Stage 13 on July 14th. 1990
         Owning:    Claudio Chiappucci    
Pick a stage:  Pro 1 2 3 4 5 6 7 8 9 10 11 12 13 14 15 16 17 18 19 20 21
From: Villard-de-Lans    To: Saint-ÉtienneDist:149.00 km.
Cat: 4Côte de ArdoixFRAThierry Claveyrolat
5 points
 
Cat: 2Croix de ChaubouretUSAGreg LeMond
20 points
 

Average speed for all riders in stage:  42,505 km./hr.
    Place:Name:Team:Time:Km/h:
ESPEduardo ChozasESPO.N.C.E.03:20:12  +  00:00:00=44,655 
NEDErik BreukinkNLDPDM-Concorde03:20:12  +  00:00:00=44,655 
USAAndy HampstenUSA7-Eleven-Hoonved03:20:12  +  00:00:00=44,655 
4 ITARoberto ContiITAAriostea03:20:12  +  00:00:00=44,655 
5 USAGreg LeMondFRAZ-Peugeot03:20:12  +  00:00:00=44,655 
6 ESPMarino LejarretaESPO.N.C.E.03:20:42  +  00:00:30=44,544 
7 ESPPedro DelgadoESPBanesto03:20:42  +  00:00:30=44,544 
8 SUIGianni BugnoITAChateau d'Ax03:20:42  +  00:00:30=44,544 
9 ESPMiguel IndurainESPBanesto03:20:48  +  00:00:36=44,522 
10 URSDimitri KonychevITAAlfa Lum03:23:20  +  00:03:08=43,967 
11 DENBrian HolmBELHistor-Sigma03:23:21  +  00:03:09=43,964 
12 ESPMiguel Angel MartinezESPO.N.C.E.03:23:21  +  00:03:09=43,964 
13 BELClaude CriquielionBELLotto-Superclub03:23:21  +  00:03:09=43,964 
14 BELGuy NulensNLDPanasonic-Sportlife03:23:21  +  00:03:09=43,964 
15 URSPiotr UgrumovITAAlfa Lum03:23:21  +  00:03:09=43,964 
16 FRAGilles DelionCHEHelvetia-La Suisse03:23:21  +  00:03:09=43,964 
17 BELPatrick RobeetCHEWeinmann-La Suisse-S.M.M. Uste..03:23:21  +  00:03:09=43,964 
18 FRAFabrice PhilipotFRACastorama-Raleigh03:23:21  +  00:03:09=43,964 
19 ESPPello RuizESPO.N.C.E.03:23:21  +  00:03:09=43,964 
20 COLWilliam PalacioCOLRyalcao-Postobon03:23:21  +  00:03:09=43,964 
21 COLGerardo MoncadaCOLRyalcao-Postobon03:23:21  +  00:03:09=43,964 
22 FRAPascal LinoFRAR.M.O.-Mavic-Liberia03:23:21  +  00:03:09=43,964 
23 ESPRaúl AlcaláNLDPDM-Concorde03:23:21  +  00:03:09=43,964 
24 IRLStephen RocheBELHistor-Sigma03:23:21  +  00:03:09=43,964 
25 COLReynel MontoyaCOLRyalcao-Postobon03:23:21  +  00:03:09=43,964 
26 COLFabio Parra PintoESPKelme-Ibexpress03:23:21  +  00:03:09=43,964 
27 COLOscar VargasCOLRyalcao-Postobon03:23:21  +  00:03:09=43,964 
28 SUIJörg MüllerNLDTVM03:23:21  +  00:03:09=43,964 
29 SUIThomas WegmüllerCHEWeinmann-La Suisse-S.M.M. Uste..03:24:58  +  00:04:46=43,617 
30 DENBjarne RiisFRACastorama-Raleigh03:25:05  +  00:04:53=43,592 
31 ITAMarcello SiboniITAAriostea03:25:05  +  00:04:53=43,592 
32 FRAPascal SimonFRACastorama-Raleigh03:25:05  +  00:04:53=43,592 
33 NEDPatrick TolhoekNLDBuckler03:25:05  +  00:04:53=43,592 
34 FRAJerôme SimonFRAZ-Peugeot03:25:05  +  00:04:53=43,592 
35 ITAClaudio ChiappucciITACarrera Jeans-Vagabond03:25:05  +  00:04:53=43,592 
36 COLAlvaro MejiaCOLRyalcao-Postobon03:25:05  +  00:04:53=43,592 
37 SUIBeat BreuCHEWeinmann-La Suisse-S.M.M. Uste..03:25:05  +  00:04:53=43,592 
38 COLPablo HernandezCOLRyalcao-Postobon03:25:05  +  00:04:53=43,592 
39 IRLSean KellyNLDPDM-Concorde03:25:05  +  00:04:53=43,592 
40 FRADenis RouxNLDToshiba03:25:05  +  00:04:53=43,592 
41 COLAbelardo RondonESPBanesto03:25:05  +  00:04:53=43,592 
42 CANSteve BauerUSA7-Eleven-Hoonved03:25:05  +  00:04:53=43,592 
43 BELMarc SergeantNLDPanasonic-Sportlife03:25:05  +  00:04:53=43,592 
44 NEDMaarten DucrotNLDTVM03:25:05  +  00:04:53=43,592 
45 NORAtle KvålsvollFRAZ-Peugeot03:25:05  +  00:04:53=43,592 
46 BELJos HaexBELLotto-Superclub03:25:05  +  00:04:53=43,592 
47 AUSStephen HodgeESPO.N.C.E.03:25:05  +  00:04:53=43,592 
48 FRAÉric BoyerFRAZ-Peugeot03:25:05  +  00:04:53=43,592 
49 NEDSteven RooksNLDPanasonic-Sportlife03:25:05  +  00:04:53=43,592 
50 SCORobert MillarFRAZ-Peugeot03:25:05  +  00:04:53=43,592 
51 BELRudy DhaenensNLDPDM-Concorde03:26:12  +  00:06:00=43,356 
52 DDRMario KummerITAChateau d'Ax03:26:12  +  00:06:00=43,356 
53 NEDGerrit De VriesNLDBuckler03:26:12  +  00:06:00=43,356 
54 URSVasily ZhdanovITAAlfa Lum03:26:12  +  00:06:00=43,356 
55 NEDHenri MandersCHEHelvetia-La Suisse03:26:12  +  00:06:00=43,356 
56 FRACharly MottetFRAR.M.O.-Mavic-Liberia03:26:37  +  00:06:25=43,269 
57 FRAThierry ClaveyrolatFRAR.M.O.-Mavic-Liberia03:26:37  +  00:06:25=43,269 
58 FRAJean-Claude ColottiFRAR.M.O.-Mavic-Liberia03:26:37  +  00:06:25=43,269 
59 SUINiki RüttimannCHEHelvetia-La Suisse03:26:37  +  00:06:25=43,269 
60 SUIMauro GianettiCHEHelvetia-La Suisse03:26:37  +  00:06:25=43,269 
61 DENTony RomingerITAChateau d'Ax03:26:37  +  00:06:25=43,269 
62 BELPeter RoesBELLotto-Superclub03:26:37  +  00:06:25=43,269 
63 ITADavide CassaniITAAriostea03:26:37  +  00:06:25=43,269 
64 SUIKurt SteinmannCHEWeinmann-La Suisse-S.M.M. Uste..03:26:37  +  00:06:25=43,269 
65 BELJohan BruyneelBELLotto-Superclub03:26:37  +  00:06:25=43,269 
66 ESPJesus RodriguezESPBanesto03:26:37  +  00:06:25=43,269 
67 ITAMassimo GhirottoITACarrera Jeans-Vagabond03:26:37  +  00:06:25=43,269 
68 BELMichel DerniesCHEWeinmann-La Suisse-S.M.M. Uste..03:26:37  +  00:06:25=43,269 
69 FRAPascal LanceNLDToshiba03:26:37  +  00:06:25=43,269 
70 ITARoberto GusmeroliITAChateau d'Ax03:26:37  +  00:06:25=43,269 
71 ITAAlberto VolpiITAChateau d'Ax03:26:37  +  00:06:25=43,269 
72 ITAAlberto ElliITAAriostea03:26:37  +  00:06:25=43,269 
73 BELEric Van LanckerNLDPanasonic-Sportlife03:26:37  +  00:06:25=43,269 
74 FRAFrançois LemarchandFRAZ-Peugeot03:27:59  +  00:07:47=42,984 
75 FRABruno CornilletFRAZ-Peugeot03:27:59  +  00:07:47=42,984 
76 FRARonan PensecFRAZ-Peugeot03:27:59  +  00:07:47=42,984 
77 FRAPhilippe LouviotNLDToshiba03:27:59  +  00:07:47=42,984 
78 BELPatrick VerschuerenBELLotto-Superclub03:30:24  +  00:10:12=42,490 
79 USARonald KiefelUSA7-Eleven-Hoonved03:30:24  +  00:10:12=42,490 
80 DDRUwe RaabNLDPDM-Concorde03:30:24  +  00:10:12=42,490 
81 FRAJean-Claude BagotFRAR.M.O.-Mavic-Liberia03:30:24  +  00:10:12=42,490 
82 NEDJelle NijdamNLDBuckler03:30:24  +  00:10:12=42,490 
83 NORDag Otto LauritzenUSA7-Eleven-Hoonved03:30:24  +  00:10:12=42,490 
84 NEDToine PoelsNLDBuckler03:30:24  +  00:10:12=42,490 
85 COLJuan CastilloCOLRyalcao-Postobon03:30:24  +  00:10:12=42,490 
86 BELPaul HaghedoorenBELHistor-Sigma03:30:24  +  00:10:12=42,490 
87 FRAJean-Claude LeclercqCHEHelvetia-La Suisse03:30:24  +  00:10:12=42,490 
88 BELJohan MuseeuwBELLotto-Superclub03:30:24  +  00:10:12=42,490 
89 BELCarlo BomansCHEWeinmann-La Suisse-S.M.M. Uste..03:30:24  +  00:10:12=42,490 
90 COLNéstor MoraESPKelme-Ibexpress03:30:24  +  00:10:12=42,490 
91 GERAndreas KappesNLDToshiba03:30:24  +  00:10:12=42,490 
92 DDRJan SchurITAChateau d'Ax03:30:24  +  00:10:12=42,490 
93 ITABruno CenghialtaITAAriostea03:30:24  +  00:10:12=42,490 
94 DENSøren LilholtBELHistor-Sigma03:30:51  +  00:10:39=42,400 
95 COLCarlos JaramilloCOLRyalcao-Postobon03:30:51  +  00:10:39=42,400 
96 COLWilliam PulidoCOLRyalcao-Postobon03:30:51  +  00:10:39=42,400 
97 COLNelson RodriguezESPKelme-Ibexpress03:32:38  +  00:12:26=42,044 
98 URSViatcheslav EkimovNLDPanasonic-Sportlife03:32:38  +  00:12:26=42,044 
99 PORJosé FerreiraFRASeur03:32:38  +  00:12:26=42,044 
100 URSDjamolidine AbduzhaparovITAAlfa Lum03:32:38  +  00:12:26=42,044 
101 URSAlexandre TrubineITAAlfa Lum03:32:38  +  00:12:26=42,044 
102 PORAcacio da SilvaITACarrera Jeans-Vagabond03:32:38  +  00:12:26=42,044 
103 USAAndrew BishopUSA7-Eleven-Hoonved03:32:38  +  00:12:26=42,044 
104 ESPVicente RidauraFRASeur03:32:38  +  00:12:26=42,044 
105 USANorman AlvisUSA7-Eleven-Hoonved03:32:38  +  00:12:26=42,044 
106 NEDAdri Van Der PoelCHEWeinmann-La Suisse-S.M.M. Uste..03:32:38  +  00:12:26=42,044 
107 ITAValerio PivaITAAriostea03:32:38  +  00:12:26=42,044 
108 ITAGuiseppe CalcaterraITAChateau d'Ax03:32:44  +  00:12:32=42,024 
109 ITAMauro-Antonio SantaromitaITAChateau d'Ax03:32:44  +  00:12:32=42,024 
110 NEDEdwig Van HooydonckNLDBuckler03:32:44  +  00:12:32=42,024 
111 BELWillem Van EyndeBELLotto-Superclub03:32:44  +  00:12:32=42,024 
112 BELJan GoessensCHEWeinmann-La Suisse-S.M.M. Uste..03:32:44  +  00:12:32=42,024 
113 ESPAnselmo FuerteESPO.N.C.E.03:32:44  +  00:12:32=42,024 
114 ESPHerminio ZabalaESPO.N.C.E.03:32:44  +  00:12:32=42,024 
115 NEDJean-Paul van PoppelNLDPanasonic-Sportlife03:35:00  +  00:14:48=41,581 
116 BELWilfried PeetersBELHistor-Sigma03:35:00  +  00:14:48=41,581 
117 SUIHans-Rüdi MärkiCHEHelvetia-La Suisse03:35:00  +  00:14:48=41,581 
118 SUIGuido WinterbergCHEHelvetia-La Suisse03:35:00  +  00:14:48=41,581 
119 DDROlaf LudwigNLDPanasonic-Sportlife03:35:00  +  00:14:48=41,581 
120 NEDFrans MaassenNLDBuckler03:35:00  +  00:14:48=41,581 
121 FRARoland Le ClercNLDToshiba03:35:00  +  00:14:48=41,581 
122 DENJohnny WeltzESPO.N.C.E.03:35:00  +  00:14:48=41,581 
123 BELMichel VermoteFRAR.M.O.-Mavic-Liberia03:37:40  +  00:17:28=41,072 
124 ESPJosé UreaFRASeur03:37:40  +  00:17:28=41,072 
125 BELPeter De ClercqBELLotto-Superclub03:37:40  +  00:17:28=41,072 
126 FRAVincent BarteauFRACastorama-Raleigh03:37:40  +  00:17:28=41,072 
127 ESPAntonio DiasESPKelme-Ibexpress03:37:40  +  00:17:28=41,072 
128 FRAChristian ChaubetNLDToshiba03:37:40  +  00:17:28=41,072 
129 ESPMelchor MauriESPO.N.C.E.03:37:40  +  00:17:28=41,072 
130 URSAsiat SaitovITAAlfa Lum03:37:40  +  00:17:28=41,072 
131 ITAAlessandro GiannelliITACarrera Jeans-Vagabond03:37:40  +  00:17:28=41,072 
132 FRALaurent PillonBELHistor-Sigma03:37:40  +  00:17:28=41,072 
133 FRAThierry LaurentFRAR.M.O.-Mavic-Liberia03:37:40  +  00:17:28=41,072 
134 ENGPhil AndersonNLDTVM03:37:40  +  00:17:28=41,072 
135 FRAGilbert Duclos-LassalleFRAZ-Peugeot03:37:40  +  00:17:28=41,072 
136 USADavis PhinneyUSA7-Eleven-Hoonved03:37:40  +  00:17:28=41,072 
137 FRAFrédéric BrunFRAR.M.O.-Mavic-Liberia03:37:40  +  00:17:28=41,072 
138 FRAChristophe LavainneFRACastorama-Raleigh03:37:40  +  00:17:28=41,072 
139 NEDJan SiemonsNLDTVM03:37:40  +  00:17:28=41,072 
140 FRADominique ArnaudESPBanesto03:37:40  +  00:17:28=41,072 
141 ITAAdriano BaffiITAAriostea03:37:40  +  00:17:28=41,072 
142 USABob RollUSA7-Eleven-Hoonved03:37:40  +  00:17:28=41,072 
143 FRAThierry MarieFRACastorama-Raleigh03:37:40  +  00:17:28=41,072 
144 ESPLuis LukinESPBanesto03:37:40  +  00:17:28=41,072 
145 FRALuc LeblancFRACastorama-Raleigh03:37:40  +  00:17:28=41,072 
146 FRALaurent BiondiBELHistor-Sigma03:37:40  +  00:17:28=41,072 
147 ITAGuido BontempiITACarrera Jeans-Vagabond03:37:40  +  00:17:28=41,072 
148 NEDGert JakobsNLDPDM-Concorde03:37:40  +  00:17:28=41,072 
149 URSIvan IvanovITAAlfa Lum03:37:40  +  00:17:28=41,072 
150 ESPPablo MorenoFRASeur03:37:40  +  00:17:28=41,072 
151 SUIErich MächlerITACarrera Jeans-Vagabond03:37:40  +  00:17:28=41,072 
152 URSNikolai GolovatenkoITAAlfa Lum03:37:40  +  00:17:28=41,072 
153 ENGSean YatesUSA7-Eleven-Hoonved03:37:40  +  00:17:28=41,072 
154 NEDGerrit SolleveldNLDBuckler03:37:40  +  00:17:28=41,072 
155 ESPJuan MartinezESPBanesto03:37:40  +  00:17:28=41,072 
156 ENGMaximilian SciandriITACarrera Jeans-Vagabond03:37:40  +  00:17:28=41,072 
157 ITAGiovanni FidanzaITAChateau d'Ax03:37:40  +  00:17:28=41,072 
158 ESPJesús RosadoESPKelme-Ibexpress03:37:40  +  00:17:28=41,072 
159 ITARodolfo MassiITAAriostea03:37:40  +  00:17:28=41,072 
160 BELHendrik RedantBELLotto-Superclub03:37:40  +  00:17:28=41,072 
161 NEDJos Van AertNLDPDM-Concorde03:37:40  +  00:17:28=41,072 
162 ITAFlavio GiupponiITACarrera Jeans-Vagabond03:37:40  +  00:17:28=41,072 
163 ITAGiancarlo PeriniITACarrera Jeans-Vagabond03:37:40  +  00:17:28=41,072 
164 NEDMartin SchalkersNLDTVM03:37:40  +  00:17:28=41,072 
165 ESPMarino MonjeESPBanesto03:37:40  +  00:17:28=41,072 
166 ITAGiuseppe SaronniESPKelme-Ibexpress03:37:40  +  00:17:28=41,072 
167 SUIPascal RichardCHEHelvetia-La Suisse03:44:14  +  00:24:02=39,869 
168 ESPAntonio EspejoESPKelme-Ibexpress03:45:19  +  00:25:07=39,677 

Withdrawls: 2
 
Rider
Team
Reason
33  DDRUwe AmplerNLDPDM-ConcordeDid not finish
114  SUIOthmar HäfligerCHEHelvetia-La SuisseDid not finish

Todays birthdays.

1877  Antoine Perrichon
1878  Auguste Berthault
1911  Théo Herckenrath
1924  Carlo Lafranchi
1931  Armand Di Caro
1937  Jean-Claude Lebaube
1951  Giovanni Battaglin
1961  Pascal Jules
1962  Jean-Claude Leclercq
1976  Janek Tombak
1978  Francisco Pérez
1983  Dries Devenyns




Visits: